IR3AS Weather Reports


time (UTC)temp
C
wind
direction
speed
KPH
gust
KPH
rain 1hr
cm
rain 24hr
cm
rain mn
cm
humidity
%
barometer
mb
20260507070046 4 0 0.0 0.0 0.00 0.00 0.00 82 854.9
20260507065654 4 0 0.0 0.0 0.00 0.00 0.00 81 853.6
20260507065546 4 0 0.0 0.0 0.00 0.00 0.00 81 853.6
20260507065046 5 0 0.0 0.0 0.00 0.00 0.00 81 854.7
20260507064546 6 0 0.0 0.0 0.00 0.00 0.00 80 853.3
20260507064046 6 0 0.0 0.0 0.00 0.00 0.00 79 854.9
20260507063546 7 0 0.0 0.0 0.00 0.00 0.00 78 852.8
20260507063046 7 0 0.0 0.0 0.00 0.00 0.00 80 854.2
20260507062547 5 0 0.0 0.0 0.00 0.00 0.00 83 853.7
20260507062046 5 0 0.0 0.0 0.00 0.00 0.00 83 851.7
20260507061546 5 0 0.0 0.0 0.00 0.00 0.00 83 854.6
20260507061047 5 0 0.0 0.0 0.00 0.00 0.00 83 850.8
20260507060546 5 0 0.0 0.0 0.00 0.00 0.00 83 852.9
20260507060046 4 0 0.0 0.0 0.00 0.00 0.00 83 853.9
20260507055546 4 0 0.0 0.0 0.00 0.00 0.00 83 853.0
20260507055046 3 0 0.0 0.0 0.00 0.00 0.00 83 854.9
20260507054546 3 0 0.0 0.0 0.00 0.00 0.00 82 852.3
20260507054047 3 0 0.0 0.0 0.00 0.00 0.00 83 853.4
20260507053546 2 0 0.0 0.0 0.00 0.00 0.00 84 853.9
20260507053046 2 0 0.0 0.0 0.00 0.00 0.00 84 851.5
20260507052546 1 0 0.0 0.0 0.00 0.00 0.00 83 853.4
20260507052046 1 0 0.0 0.0 0.00 0.00 0.00 83 853.5
20260507051546 1 0 0.0 0.0 0.00 0.00 0.00 83 855.5
20260507051046 1 0 0.0 0.0 0.00 0.00 0.00 83 851.6
20260507050546 2 0 0.0 0.0 0.00 0.00 0.00 85 854.3
20260507050046 2 0 0.0 0.0 0.00 0.00 0.00 85 853.1
20260507045546 2 0 0.0 0.0 0.00 0.00 0.00 86 854.8
20260507045046 2 0 0.0 0.0 0.00 0.00 0.00 86 851.3
20260507044546 2 0 0.0 0.0 0.00 0.00 0.00 86 853.8
20260507044046 2 0 0.0 0.0 0.00 0.00 0.00 86 852.9
20260507043546 1 0 0.0 0.0 0.00 0.00 0.00 86 852.5
20260507043046 1 0 0.0 0.0 0.00 0.00 0.00 86 855.2
20260507042546 1 0 0.0 0.0 0.00 0.00 0.00 87 853.8
20260507042046 0 157 115.9 115.9 0.00 0.00 0.00 88 855.4
20260507041546 0 315 0.0 0.0 0.00 0.00 0.00 88 854.2
20260507041046 0 315 0.0 0.0 0.00 0.00 0.00 88 855.1
20260507040547 0 315 0.0 0.0 0.00 0.00 0.00 88 855.6
20260507040046 0 315 0.0 0.0 0.00 0.00 0.00 89 853.5
20260507035546 0 315 0.0 0.0 0.00 0.00 0.00 89 856.1
20260507035050 0 315 0.0 0.0 0.00 0.00 0.00 89 852.7
20260507034546 0 315 0.0 0.0 0.00 0.00 0.00 89 855.1
20260507034046 0 315 0.0 0.0 0.00 0.00 0.00 89 854.4
20260507033546 0 315 0.0 0.0 0.00 0.00 0.00 89 853.6
20260507033046 0 315 0.0 0.0 0.00 0.00 0.00 89 852.5
20260507032546 0 315 0.0 0.0 0.00 0.00 0.00 89 852.5
20260507032046 0 315 0.0 0.0 0.00 0.00 0.00 89 852.6
20260507031546 0 315 0.0 0.0 0.00 0.00 0.00 89 852.4
20260507031046 0 315 0.0 0.0 0.00 0.00 0.00 89 852.6
20260507030546 0 315 0.0 0.0 0.00 0.00 0.00 89 852.4
20260507030046 0 315 0.0 0.0 0.00 0.00 0.00 89 852.4
20260507025546 0 315 0.0 0.0 0.00 0.00 0.00 89 852.4
20260507025046 0 315 0.0 0.0 0.00 0.00 0.00 90 852.3
20260507024546 0 315 0.0 0.0 0.00 0.00 0.00 90 852.1
20260507024046 0 315 0.0 3.2 0.00 0.00 0.00 90 852.0
20260507023649 0 315 0.0 0.0 0.00 0.00 0.00 91 852.1
20260507023546 0 315 0.0 0.0 0.00 0.00 0.00 91 852.1
20260507023046 0 315 0.0 3.2 0.00 0.00 0.00 91 852.1
20260507022546 0 0 0.0 0.0 0.00 0.00 0.00 91 851.8
20260507022046 0 292 0.0 6.4 0.00 0.00 0.00 91 851.8
20260507021546 0 292 1.6 6.4 0.00 0.00 0.00 91 851.6
20260507021046 0 292 0.0 1.6 0.00 0.00 0.00 91 851.8
20260507020547 0 292 1.6 3.2 0.00 0.00 0.00 91 851.5
20260507020046 0 292 3.2 6.4 0.00 0.00 0.00 91 851.1
20260507015546 0 292 4.8 6.4 0.00 0.00 0.00 92 850.8
20260507015046 0 292 3.2 6.4 0.00 0.00 0.00 92 850.2
20260507014546 0 292 1.6 14.5 0.00 0.00 0.00 92 850.1
20260507014046 0 292 14.5 14.5 0.00 0.00 0.00 92 849.4
20260507013546 0 292 11.3 12.9 0.00 0.00 0.00 91 849.3
20260507013046 0 315 3.2 6.4 0.00 0.00 0.00 91 849.9
20260507012547 0 315 4.8 11.3 0.00 0.00 0.00 91 849.6
20260507012046 0 337 8.0 12.9 0.00 0.00 0.00 92 849.5
20260507011546 0 315 9.7 9.7 0.00 0.00 0.00 92 849.1
20260507011046 0 315 9.7 16.1 0.00 0.00 0.00 92 848.5
20260507010546 0 0 0.0 11.3 0.00 0.00 0.00 93 848.4
20260507010046 0 315 9.7 9.7 0.00 0.00 0.00 93 848.0
20260507005546 0 315 9.7 11.3 0.00 0.00 0.00 93 848.1
20260507005046 0 315 9.7 11.3 0.00 0.00 0.00 93 847.8
20260507004546 0 315 9.7 9.7 0.00 0.00 0.00 93 847.8
20260507004046 0 315 9.7 11.3 0.00 0.00 0.00 93 847.6
20260507003546 0 315 9.7 11.3 0.00 0.00 0.00 93 847.5
20260507003046 1 315 9.7 14.5 0.00 0.00 0.00 93 847.5
20260507002546 1 315 9.7 16.1 0.00 0.00 0.00 93 847.4
20260507002046 1 292 12.9 16.1 0.00 0.00 0.00 93 847.4
20260507001546 1 292 14.5 16.1 0.00 0.00 0.00 93 847.7
20260507001046 1 315 11.3 16.1 0.00 0.00 0.00 93 847.8
20260507000547 1 315 11.3 17.7 0.00 0.00 0.00 93 847.7
20260507000046 0 292 17.7 17.7 0.00 0.00 0.00 93 847.8
20260506235547 0 292 12.9 16.1 0.00 0.00 0.00 93 847.9
20260506235046 0 315 9.7 12.9 0.00 0.00 0.00 93 848.0
20260506234547 0 315 9.7 12.9 0.00 0.00 0.00 93 848.1
20260506234046 1 315 9.7 14.5 0.00 0.00 0.00 93 848.0
20260506234044 1 315 11.3 12.9 0.00 0.00 0.00 93 848.0
20260506233546 1 315 12.9 16.1 0.00 0.00 0.00 93 848.0
20260506233047 1 315 11.3 12.9 0.00 0.00 0.00 93 848.0
20260506232547 1 315 9.7 11.3 0.00 0.00 0.00 93 848.0
20260506232047 1 315 11.3 12.9 0.00 0.00 0.00 93 848.0
20260506231547 1 315 9.7 12.9 0.00 0.00 0.00 93 848.1
20260506231048 1 315 11.3 11.3 0.00 0.00 0.00 93 848.1
20260506230547 1 315 11.3 11.3 0.00 0.00 0.00 93 848.1
20260506230047 1 315 4.8 12.9 0.00 0.00 0.00 93 848.1
20260506225547 1 315 3.2 9.7 0.00 0.00 0.00 93 848.2
20260506225047 1 337 6.4 8.0 0.00 0.00 0.00 93 848.2
20260506224547 1 315 9.7 9.7 0.00 0.00 0.00 93 848.3
20260506224047 1 315 6.4 9.7 0.00 0.00 0.00 93 848.5
20260506223547 1 315 9.7 11.3 0.00 0.00 0.00 92 848.5
20260506223047 1 315 8.0 9.7 0.00 0.00 0.00 92 848.5
20260506222546 1 315 6.4 11.3 0.00 0.00 0.00 92 848.4
20260506222047 1 315 8.0 90.1 0.00 0.00 0.00 92 848.7
20260506221547 1 315 0.0 160.9 0.00 0.00 0.00 92 848.8
20260506221047 1 315 0.0 82.1 0.00 0.00 0.00 92 849.0
20260506220547 1 315 0.0 46.7 0.00 0.00 0.00 92 849.0
20260506220047 1 0 0.0 4.8 0.00 0.00 0.00 92 849.1
20260506215630 1 315 4.8 91.7 0.00 0.00 0.00 92 849.0
20260506215547 1 315 4.8 91.7 0.00 0.00 0.00 92 849.0
20260506215214 1 0 91.7 91.7 0.00 0.00 0.00 92 848.9
20260506215047 1 0 91.7 91.7 0.00 0.00 0.00 92 848.9
20260506214547 1 315 1.6 70.8 0.00 0.00 0.00 92 848.8
20260506214047 1 270 0.0 0.0 0.00 0.00 0.00 92 848.9
20260506213547 1 0 0.0 14.5 0.00 0.00 0.00 92 848.8
20260506213047 1 315 12.9 24.1 0.00 0.00 0.00 92 848.9
20260506212548 1 337 0.0 0.0 0.00 0.00 0.00 92 848.8
20260506212047 1 45 3.2 160.9 0.00 0.00 0.00 92 848.8
20260506211548 1 45 0.0 177.0 0.00 0.00 0.00 92 848.9
20260506211047 1 112 0.0 16.1 0.00 0.00 0.00 92 849.0
20260506210547 1 337 16.1 20.9 0.00 0.00 0.00 92 848.7
20260506210047 1 315 12.9 14.5 0.00 0.00 0.00 92 848.6
20260506205547 1 292 0.0 8.0 0.00 0.00 0.00 92 848.5
20260506205047 1 315 6.4 16.1 0.00 0.00 0.00 92 848.5
20260506204547 1 315 6.4 8.0 0.00 0.00 0.00 92 848.6
20260506204047 1 315 6.4 16.1 0.00 0.00 0.00 92 848.5
20260506203547 1 315 8.0 20.9 0.00 0.00 0.00 92 848.5
20260506203047 1 315 9.7 19.3 0.00 0.00 0.00 92 848.4
20260506202547 1 292 3.2 6.4 0.00 0.00 0.00 92 848.3
20260506202047 1 337 6.4 12.9 0.00 0.00 0.00 92 848.4
20260506201548 1 315 12.9 12.9 0.00 0.00 0.00 92 848.4
20260506201047 1 315 9.7 9.7 0.00 0.00 0.00 92 848.3
20260506200548 1 337 14.5 29.0 0.00 0.00 0.00 92 848.4
20260506200047 1 315 3.2 14.5 0.00 0.00 0.00 92 848.3
20260506195548 1 315 20.9 20.9 0.00 0.00 0.00 92 848.2
20260506195047 1 315 8.0 19.3 0.00 0.00 0.00 92 848.3
20260506194547 1 315 11.3 19.3 0.00 0.00 0.00 92 848.3
20260506194047 1 315 8.0 19.3 0.00 0.00 0.00 92 848.4
20260506193549 2 315 6.4 24.1 0.00 0.00 0.00 92 848.6
20260506193047 2 315 6.4 11.3 0.00 0.00 0.00 92 848.8
20260506192548 2 315 9.7 12.9 0.00 0.00 0.00 92 849.0
20260506192048 2 292 12.9 12.9 0.00 0.00 0.00 93 848.8
20260506191547 2 292 9.7 11.3 0.00 0.00 0.00 92 848.8
20260506191047 2 292 9.7 16.1 0.00 0.00 0.00 92 848.9
20260506190549 2 315 12.9 16.1 0.00 0.00 0.00 92 848.8
20260506190047 1 0 0.0 0.0 0.00 0.00 0.00 92 851.6
20260506185627 1 0 0.0 0.0 0.00 0.00 0.00 91 853.0
20260506185547 1 0 0.0 0.0 0.00 0.00 0.00 91 853.0
20260506185048 2 0 0.0 0.0 0.00 0.00 0.00 91 851.9
20260506184547 2 315 0.0 0.0 0.00 0.00 0.00 91 853.3
20260506184047 2 315 0.0 0.0 0.00 0.00 0.00 91 851.6
20260506183548 2 315 0.0 0.0 0.00 0.00 0.00 91 853.6
20260506183230 2 315 0.0 0.0 0.00 0.00 0.00 91 853.6
20260506183047 2 315 0.0 0.0 0.00 0.00 0.00 91 853.6
20260506182547 2 315 0.0 0.0 0.00 0.00 0.00 89 854.4
20260506182047 2 315 0.0 0.0 0.00 0.00 0.00 89 854.2
20260506181548 2 315 0.0 0.0 0.00 0.00 0.00 89 854.6
20260506181047 2 315 0.0 0.0 0.00 0.00 0.00 89 852.3
20260506180704 2 315 0.0 0.0 0.00 0.00 0.00 88 854.6
20260506180547 2 315 0.0 0.0 0.00 0.00 0.00 88 854.6
20260506180047 3 315 0.0 0.0 0.00 0.00 0.00 88 856.1
20260506175547 3 315 0.0 0.0 0.00 0.00 0.00 88 854.1
20260506175048 3 315 0.0 0.0 0.00 0.00 0.00 88 853.9
20260506174548 4 315 0.0 0.0 0.00 0.00 0.00 89 854.3
20260506174048 3 315 0.0 0.0 0.00 0.00 0.00 89 852.8
20260506173547 3 315 0.0 0.0 0.00 0.00 0.00 88 855.1
20260506173047 3 315 0.0 0.0 0.00 0.00 0.00 88 852.4
20260506172547 4 315 0.0 0.0 0.00 0.00 0.00 87 853.2
20260506172047 5 315 0.0 0.0 0.00 0.00 0.00 87 853.2
20260506171548 5 315 0.0 0.0 0.00 0.00 0.00 87 853.4
20260506171047 5 315 0.0 0.0 0.00 0.00 0.00 88 853.4
20260506170547 5 315 0.0 0.0 0.00 0.00 0.00 88 852.0
20260506170048 5 337 8.0 8.0 0.00 0.00 0.00 90 848.9
20260506165549 5 22 0.0 16.1 0.00 0.00 0.00 90 850.0
20260506165048 5 337 11.3 17.7 0.00 0.00 0.00 91 850.6
20260506164547 5 315 6.4 16.1 0.00 0.00 0.00 91 850.9
20260506164047 5 315 4.8 25.7 0.00 0.00 0.00 90 851.0
20260506163548 4 315 0.0 6.4 0.00 0.00 0.00 91 850.7
20260506163047 5 315 3.2 11.3 0.00 0.00 0.00 91 850.5
20260506162548 5 315 11.3 19.3 0.00 0.00 0.00 92 850.3
20260506162513 5 292 9.7 14.5 0.00 0.00 0.00 92 849.9
20260506162047 5 292 9.7 14.5 0.00 0.00 0.00 92 849.9
20260506161548 5 315 9.7 11.3 0.00 0.00 0.00 93 849.8
20260506161047 5 67 9.7 12.9 0.00 0.00 0.00 93 849.7
20260506160547 5 337 4.8 12.9 0.00 0.00 0.00 93 849.7
20260506160047 5 0 9.7 17.7 0.00 0.00 0.00 93 849.7
20260506155548 5 337 9.7 12.9 0.00 0.00 0.00 93 849.4
20260506155048 5 22 1.6 17.7 0.00 0.00 0.00 93 849.6
20260506154548 4 0 17.7 17.7 0.00 0.00 0.00 93 849.0
20260506154048 4 337 3.2 16.1 0.00 0.00 0.00 93 849.1
20260506153549 4 0 6.4 12.9 0.00 0.00 0.00 93 849.3
20260506153048 4 112 1.6 4.8 0.00 0.00 0.00 93 849.1
20260506152548 4 135 1.6 12.9 0.00 0.00 0.00 93 848.9
20260506152048 4 67 0.0 11.3 0.00 0.00 0.00 93 848.6
20260506151548 4 135 1.6 16.1 0.00 0.00 0.00 93 848.5
20260506151048 4 67 0.0 11.3 0.00 0.00 0.00 93 848.3
20260506150548 4 112 0.0 11.3 0.00 0.00 0.00 93 848.1
20260506150048 4 22 4.8 14.5 0.00 0.00 0.00 93 847.8
20260506145548 4 337 14.5 14.5 0.00 0.00 0.00 94 847.6
20260506145048 3 157 0.0 11.3 0.00 0.00 0.00 94 847.6
20260506144548 3 112 4.8 11.3 0.00 0.00 0.00 93 847.3
20260506144048 2 112 6.4 12.9 0.00 0.00 0.00 93 847.3
20260506143548 2 90 3.2 12.9 0.00 0.00 0.00 93 847.2
20260506143048 2 112 12.9 12.9 0.00 0.00 0.00 93 847.3
20260506142549 1 112 9.7 19.3 0.00 0.00 0.00 93 847.6
20260506142049 1 112 3.2 32.2 0.00 0.00 0.00 93 848.1
20260506141548 1 0 22.5 22.5 0.00 0.00 0.00 93 847.6
20260506141048 1 135 8.0 24.1 0.00 0.00 0.00 93 847.8
20260506140548 1 112 19.3 27.4 0.00 0.00 0.00 93 847.9
20260506140048 1 135 8.0 9.7 0.00 0.00 0.00 93 849.2
20260506135548 1 112 6.4 11.3 0.00 0.00 0.00 93 849.4
20260506135048 1 135 6.4 11.3 0.00 0.00 0.00 93 849.3
20260506134548 1 135 6.4 12.9 0.00 0.00 0.00 93 850.2
20260506134048 1 112 12.9 14.5 0.00 0.00 0.00 93 852.5
20260506133548 1 135 9.7 17.7 0.00 0.00 0.00 93 851.2
20260506133048 1 112 6.4 14.5 0.00 0.00 0.00 93 853.0
20260506132548 1 135 6.4 14.5 0.00 0.00 0.00 93 853.4
20260506132049 1 112 12.9 29.0 0.00 0.00 0.00 93 853.0
20260506131548 1 112 6.4 9.7 0.00 0.00 0.00 93 848.3
20260506131048 1 112 3.2 6.4 0.00 0.00 0.00 92 848.6
20260506130548 1 112 6.4 12.9 0.00 0.00 0.00 92 848.1
20260506130048 2 135 8.0 19.3 0.00 0.00 0.00 92 849.2
20260506125548 3 112 0.0 11.3 0.00 0.00 0.00 93 850.2
20260506125048 3 112 0.0 3.2 0.00 0.00 0.00 93 848.0
20260506124549 3 45 0.0 32.2 0.00 0.00 0.00 93 847.9
20260506124049 3 292 32.2 46.7 0.00 0.00 0.00 93 847.4
20260506123548 3 270 0.0 22.5 0.00 0.00 0.00 93 848.2
20260506123048 3 315 17.7 19.3 0.00 0.00 0.00 93 849.4
20260506122548 3 315 16.1 20.9 0.00 0.00 0.00 93 849.6
20260506122048 3 315 20.9 20.9 0.00 0.00 0.00 93 849.0
20260506121548 3 315 0.0 12.9 0.00 0.00 0.00 93 847.6
20260506121048 3 315 12.9 20.9 0.00 0.00 0.00 93 847.6
20260506120548 3 315 20.9 20.9 0.00 0.00 0.00 93 848.1
20260506120048 3 0 0.0 12.9 0.00 0.00 0.00 93 847.7
20260506115548 3 292 6.4 19.3 0.00 0.00 0.00 93 847.1
20260506115048 3 315 14.5 91.7 0.00 0.00 0.00 93 847.4
20260506114548 4 270 0.0 16.1 0.00 0.00 0.00 93 847.2
20260506114048 4 292 12.9 19.3 0.00 0.00 0.00 93 847.2
20260506113549 5 337 14.5 16.1 0.00 0.00 0.00 93 847.1
20260506113048 5 315 9.7 144.8 0.00 0.00 0.00 93 846.8
20260506112548 5 292 3.2 12.9 0.00 0.00 0.00 93 846.9
20260506112048 4 315 8.0 146.5 0.00 0.00 0.00 93 846.9
20260506111549 3 315 9.7 25.7 0.00 0.00 0.00 94 846.7
20260506111049 3 292 3.2 16.1 0.00 0.00 0.00 93 846.8
20260506110548 3 315 8.0 20.9 0.00 0.00 0.00 93 846.9
20260506110048 2 270 0.0 30.6 0.00 0.00 0.00 93 847.1
20260506105548 2 292 14.5 29.0 0.00 0.00 0.00 93 847.0
20260506105048 2 337 6.4 11.3 0.00 0.00 0.00 93 847.1
20260506104548 2 315 22.5 22.5 0.00 0.00 0.00 93 847.2
20260506104048 2 337 1.6 32.2 0.00 0.00 0.00 93 847.2
20260506103549 2 315 6.4 16.1 0.00 0.00 0.00 93 847.8
20260506103048 2 315 11.3 16.1 0.00 0.00 0.00 93 847.3
20260506102548 2 292 9.7 19.3 0.00 0.00 0.00 93 847.7
20260506102048 2 315 6.4 20.9 0.00 0.00 0.00 93 851.1
20260506101548 2 315 9.7 25.7 0.00 0.00 0.00 93 849.0
20260506101049 2 315 20.9 27.4 0.00 0.00 0.00 93 849.5
20260506100548 2 315 16.1 25.7 0.00 0.00 0.00 93 847.1
20260506100048 2 315 25.7 30.6 0.00 0.00 0.00 93 850.1
20260506095548 2 315 20.9 30.6 0.00 0.00 0.00 93 847.4
20260506095048 2 337 12.9 27.4 0.00 0.00 0.00 93 850.0
20260506094548 3 292 27.4 30.6 0.00 0.00 0.00 93 851.1
20260506094048 3 292 8.0 20.9 0.00 0.00 0.00 93 847.3
20260506093548 2 292 17.7 25.7 0.00 0.00 0.00 93 847.8
20260506093048 2 292 16.1 25.7 0.00 0.00 0.00 93 847.2
20260506092548 2 270 0.0 20.9 0.00 0.00 0.00 93 847.2
20260506092048 2 315 11.3 22.5 0.00 0.00 0.00 93 847.3
20260506091548 2 315 12.9 24.1 0.00 0.00 0.00 93 847.2
20260506091048 2 315 16.1 25.7 0.00 0.00 0.00 93 847.2
20260506090548 2 337 16.1 25.7 0.00 0.00 0.00 93 846.8
20260506090048 2 315 20.9 170.6 0.00 0.00 0.00 93 846.8
20260506085548 2 315 4.8 17.7 0.00 0.00 0.00 93 846.8
20260506085049 2 315 14.5 20.9 0.00 0.00 0.00 93 847.3
20260506084548 1 292 11.3 64.4 0.00 0.00 0.00 93 846.8
20260506084048 1 292 22.5 22.5 0.00 0.00 0.00 93 846.7
20260506083548 1 315 14.5 24.1 0.00 0.00 0.00 93 846.5
20260506083048 1 315 20.9 175.4 0.00 0.00 0.00 93 847.0
20260506082549 1 292 19.3 24.1 0.00 0.00 0.00 93 847.1
20260506082048 1 315 12.9 22.5 0.00 0.00 0.00 94 846.6
20260506081548 1 315 16.1 19.3 0.00 0.00 0.00 94 846.7
20260506081048 1 0 0.0 149.7 0.00 0.00 0.00 93 847.7
20260506080548 1 315 16.1 22.5 0.00 0.00 0.00 93 847.9
20260506073049 0 292 3.2 17.7 0.00 0.00 0.00 93 849.5
20260506072549 1 315 4.8 6.4 0.00 0.00 0.00 93 850.0
20260506072050 1 292 6.4 8.0 0.00 0.00 0.00 93 850.7
20260506071549 1 292 6.4 16.1 0.00 0.00 0.00 93 850.9
20260506071049 1 292 6.4 8.0 0.00 0.00 0.00 93 851.1
20260506070550 1 292 4.8 6.4 0.00 0.00 0.00 93 850.0